******** Week 215 almanac for PRN-01 ******** ID: 01 Health: 000 Eccentricity: 0.1288223267E-001 Time of Applicability(s): 589824.0000 Orbital Inclination(rad): 0.9899712794 Rate of Right Ascen(r/s): -0.7623174679E-008 SQRT(A) (m 1/2): 5153.604004 Right Ascen at Week(rad): 0.2391647198E+001 Argument of Perigee(rad): 0.966174578 Mean Anom(rad): 0.2890920119E+001 Af0(s): 0.1821517944E-003 Af1(s/s): -0.3637978807E-011 week: 215 ******** Week 215 almanac for PRN-02 ******** ID: 02 Health: 000 Eccentricity: 0.1731920242E-001 Time of Applicability(s): 589824.0000 Orbital Inclination(rad): 0.9673989918 Rate of Right Ascen(r/s): -0.7760323249E-008 SQRT(A) (m 1/2): 5159.458984 Right Ascen at Week(rad): 0.2292957855E+001 Argument of Perigee(rad): -1.282829259 Mean Anom(rad): -0.3327352634E+000 Af0(s): -0.5922317505E-003 Af1(s/s): 0.3637978807E-011 week: 215 ******** Week 215 almanac for PRN-03 ******** ID: 03 Health: 000 Eccentricity: 0.4854679108E-002 Time of Applicability(s): 589824.0000 Orbital Inclination(rad): 0.9792633744 Rate of Right Ascen(r/s): -0.7874613724E-008 SQRT(A) (m 1/2): 5153.615234 Right Ascen at Week(rad): -0.2861349793E+001 Argument of Perigee(rad): 1.025210368 Mean Anom(rad): 0.1734946502E+001 Af0(s): -0.2899169922E-003 Af1(s/s): 0.1091393642E-010 week: 215 ******** Week 215 almanac for PRN-04 ******** ID: 04 Health: 000 Eccentricity: 0.2376556396E-002 Time of Applicability(s): 589824.0000 Orbital Inclination(rad): 0.9624734753 Rate of Right Ascen(r/s): -0.7828897534E-008 SQRT(A) (m 1/2): 5153.617188 Right Ascen at Week(rad): -0.1780610144E+001 Argument of Perigee(rad): -2.975568070 Mean Anom(rad): -0.1669853810E+001 Af0(s): 0.5245208740E-004 Af1(s/s): 0.1091393642E-010 week: 215 ******** Week 215 almanac for PRN-05 ******** ID: 05 Health: 000 Eccentricity: 0.5957126617E-002 Time of Applicability(s): 589824.0000 Orbital Inclination(rad): 0.9663024352 Rate of Right Ascen(r/s): -0.7977475151E-008 SQRT(A) (m 1/2): 5153.622559 Right Ascen at Week(rad): -0.2907908507E+001 Argument of Perigee(rad): 1.148458384 Mean Anom(rad): -0.7887159212E+000 Af0(s): -0.1287460327E-003 Af1(s/s): 0.0000000000E+000 week: 215 ******** Week 215 almanac for PRN-06 ******** ID: 06 Health: 000 Eccentricity: 0.2766132355E-002 Time of Applicability(s): 589824.0000 Orbital Inclination(rad): 0.9891803205 Rate of Right Ascen(r/s): -0.7657461821E-008 SQRT(A) (m 1/2): 5153.631836 Right Ascen at Week(rad): 0.2383320783E+001 Argument of Perigee(rad): -0.743052279 Mean Anom(rad): 0.3071181213E+001 Af0(s): 0.5874633789E-003 Af1(s/s): 0.0000000000E+000 week: 215 ******** Week 215 almanac for PRN-07 ******** ID: 07 Health: 000 Eccentricity: 0.1733732224E-001 Time of Applicability(s): 589824.0000 Orbital Inclination(rad): 0.9502675423 Rate of Right Ascen(r/s): -0.7851755629E-008 SQRT(A) (m 1/2): 5153.693848 Right Ascen at Week(rad): -0.7652200992E+000 Argument of Perigee(rad): -2.193638591 Mean Anom(rad): 0.2253041772E+001 Af0(s): 0.1678466797E-003 Af1(s/s): -0.1091393642E-010 week: 215 ******** Week 215 almanac for PRN-08 ******** ID: 08 Health: 000 Eccentricity: 0.8460044861E-002 Time of Applicability(s): 589824.0000 Orbital Inclination(rad): 0.9585426496 Rate of Right Ascen(r/s): -0.7954617056E-008 SQRT(A) (m 1/2): 5153.650879 Right Ascen at Week(rad): 0.1299325545E+001 Argument of Perigee(rad): 0.269094535 Mean Anom(rad): -0.1202430465E+001 Af0(s): -0.1249313354E-003 Af1(s/s): 0.0000000000E+000 week: 215 ******** Week 215 almanac for PRN-09 ******** ID: 09 Health: 000 Eccentricity: 0.2360820770E-002 Time of Applicability(s): 589824.0000 Orbital Inclination(rad): 0.9557922699 Rate of Right Ascen(r/s): -0.7908900866E-008 SQRT(A) (m 1/2): 5153.557617 Right Ascen at Week(rad): -0.1837318748E+001 Argument of Perigee(rad): 1.946818985 Mean Anom(rad): -0.7653957430E+000 Af0(s): -0.1497268677E-003 Af1(s/s): 0.7275957614E-011 week: 215 ******** Week 215 almanac for PRN-10 ******** ID: 10 Health: 000 Eccentricity: 0.8496761322E-002 Time of Applicability(s): 589824.0000 Orbital Inclination(rad): 0.9789997215 Rate of Right Ascen(r/s): -0.7863184676E-008 SQRT(A) (m 1/2): 5153.639648 Right Ascen at Week(rad): -0.2863996435E+001 Argument of Perigee(rad): -2.431586875 Mean Anom(rad): 0.7953757796E+000 Af0(s): -0.3910064697E-004 Af1(s/s): 0.0000000000E+000 week: 215 ******** Week 215 almanac for PRN-11 ******** ID: 11 Health: 000 Eccentricity: 0.8401870728E-003 Time of Applicability(s): 589824.0000 Orbital Inclination(rad): 0.9654096104 Rate of Right Ascen(r/s): -0.7897471819E-008 SQRT(A) (m 1/2): 5153.704102 Right Ascen at Week(rad): 0.2424629658E+001 Argument of Perigee(rad): -2.864084444 Mean Anom(rad): -0.1771008533E+001 Af0(s): -0.2126693726E-003 Af1(s/s): -0.1455191523E-010 week: 215 ******** Week 215 almanac for PRN-12 ******** ID: 12 Health: 000 Eccentricity: 0.8795261383E-002 Time of Applicability(s): 589824.0000 Orbital Inclination(rad): 0.9657691372 Rate of Right Ascen(r/s): -0.7908900866E-008 SQRT(A) (m 1/2): 5153.545898 Right Ascen at Week(rad): 0.3491615161E+000 Argument of Perigee(rad): 1.374769611 Mean Anom(rad): 0.1506047432E+001 Af0(s): -0.3814697266E-003 Af1(s/s): -0.3637978807E-011 week: 215 ******** Week 215 almanac for PRN-13 ******** ID: 13 Health: 000 Eccentricity: 0.6978511810E-002 Time of Applicability(s): 589824.0000 Orbital Inclination(rad): 0.9694363100 Rate of Right Ascen(r/s): -0.7737465154E-008 SQRT(A) (m 1/2): 5153.621582 Right Ascen at Week(rad): -0.1676996408E+001 Argument of Perigee(rad): 0.907053026 Mean Anom(rad): -0.1579077052E+001 Af0(s): 0.5254745483E-003 Af1(s/s): 0.3637978807E-011 week: 215 ******** Week 215 almanac for PRN-14 ******** ID: 14 Health: 000 Eccentricity: 0.3178119659E-002 Time of Applicability(s): 589824.0000 Orbital Inclination(rad): 0.9491230488 Rate of Right Ascen(r/s): -0.8080336578E-008 SQRT(A) (m 1/2): 5153.619629 Right Ascen at Week(rad): 0.3105123908E+000 Argument of Perigee(rad): -3.018741241 Mean Anom(rad): 0.1508900427E+001 Af0(s): 0.7152557373E-004 Af1(s/s): 0.1091393642E-010 week: 215 ******** Week 215 almanac for PRN-15 ******** ID: 15 Health: 000 Eccentricity: 0.1491117477E-001 Time of Applicability(s): 589824.0000 Orbital Inclination(rad): 0.9321893390 Rate of Right Ascen(r/s): -0.8171768958E-008 SQRT(A) (m 1/2): 5153.668945 Right Ascen at Week(rad): -0.1955729256E+001 Argument of Perigee(rad): 1.198274560 Mean Anom(rad): -0.2153454736E+001 Af0(s): 0.4386901855E-004 Af1(s/s): 0.3637978807E-011 week: 215 ******** Week 215 almanac for PRN-16 ******** ID: 16 Health: 000 Eccentricity: 0.1331281662E-001 Time of Applicability(s): 589824.0000 Orbital Inclination(rad): 0.9654575473 Rate of Right Ascen(r/s): -0.7920329914E-008 SQRT(A) (m 1/2): 5153.549316 Right Ascen at Week(rad): 0.3674146142E+000 Argument of Perigee(rad): 0.788554509 Mean Anom(rad): -0.2924581560E+000 Af0(s): -0.4968643188E-003 Af1(s/s): 0.3637978807E-011 week: 215 ******** Week 215 almanac for PRN-17 ******** ID: 17 Health: 000 Eccentricity: 0.1348686218E-001 Time of Applicability(s): 589824.0000 Orbital Inclination(rad): 0.9740801972 Rate of Right Ascen(r/s): -0.7771752296E-008 SQRT(A) (m 1/2): 5153.723145 Right Ascen at Week(rad): 0.1388411404E+001 Argument of Perigee(rad): -1.407189561 Mean Anom(rad): -0.1255589116E+001 Af0(s): 0.7162094116E-003 Af1(s/s): 0.0000000000E+000 week: 215 ******** Week 215 almanac for PRN-18 ******** ID: 18 Health: 000 Eccentricity: 0.3226280212E-002 Time of Applicability(s): 589824.0000 Orbital Inclination(rad): 0.9738584890 Rate of Right Ascen(r/s): -0.7794610391E-008 SQRT(A) (m 1/2): 5153.629395 Right Ascen at Week(rad): 0.2392631402E+001 Argument of Perigee(rad): 3.125992563 Mean Anom(rad): 0.3063403825E+001 Af0(s): -0.2841949463E-003 Af1(s/s): -0.1455191523E-010 week: 215 ******** Week 215 almanac for PRN-19 ******** ID: 19 Health: 000 Eccentricity: 0.9437561035E-002 Time of Applicability(s): 589824.0000 Orbital Inclination(rad): 0.9731274513 Rate of Right Ascen(r/s): -0.7760323249E-008 SQRT(A) (m 1/2): 5153.577148 Right Ascen at Week(rad): 0.1432968378E+001 Argument of Perigee(rad): 2.305359281 Mean Anom(rad): 0.9287088954E+000 Af0(s): 0.3223419189E-003 Af1(s/s): 0.3637978807E-011 week: 215 ******** Week 215 almanac for PRN-20 ******** ID: 20 Health: 000 Eccentricity: 0.4055500031E-002 Time of Applicability(s): 589824.0000 Orbital Inclination(rad): 0.9488234432 Rate of Right Ascen(r/s): -0.8160339911E-008 SQRT(A) (m 1/2): 5153.495605 Right Ascen at Week(rad): -0.3030279802E+001 Argument of Perigee(rad): -2.878881965 Mean Anom(rad): -0.2589005286E+001 Af0(s): 0.4310607910E-003 Af1(s/s): -0.3637978807E-011 week: 215 ******** Week 215 almanac for PRN-21 ******** ID: 21 Health: 000 Eccentricity: 0.2466630936E-001 Time of Applicability(s): 589824.0000 Orbital Inclination(rad): 0.9617064849 Rate of Right Ascen(r/s): -0.7806039439E-008 SQRT(A) (m 1/2): 5153.572754 Right Ascen at Week(rad): 0.2287984402E+001 Argument of Perigee(rad): -0.756496707 Mean Anom(rad): -0.1239158369E+001 Af0(s): 0.1535415649E-003 Af1(s/s): 0.0000000000E+000 week: 215 ******** Week 215 almanac for PRN-23 ******** ID: 23 Health: 000 Eccentricity: 0.3179073334E-002 Time of Applicability(s): 589824.0000 Orbital Inclination(rad): 0.9741341262 Rate of Right Ascen(r/s): -0.7920329914E-008 SQRT(A) (m 1/2): 5153.608887 Right Ascen at Week(rad): -0.2891186768E+001 Argument of Perigee(rad): -3.096873518 Mean Anom(rad): 0.2013153542E+001 Af0(s): 0.2765655518E-004 Af1(s/s): 0.3637978807E-011 week: 215 ******** Week 215 almanac for PRN-24 ******** ID: 24 Health: 000 Eccentricity: 0.1389217377E-001 Time of Applicability(s): 589824.0000 Orbital Inclination(rad): 0.9337892330 Rate of Right Ascen(r/s): -0.8023191341E-008 SQRT(A) (m 1/2): 5153.594238 Right Ascen at Week(rad): -0.8559028565E+000 Argument of Perigee(rad): 0.893828809 Mean Anom(rad): -0.3086847591E+001 Af0(s): -0.2040863037E-003 Af1(s/s): -0.1455191523E-010 week: 215 ******** Week 215 almanac for PRN-25 ******** ID: 25 Health: 000 Eccentricity: 0.1108789444E-001 Time of Applicability(s): 589824.0000 Orbital Inclination(rad): 0.9534733224 Rate of Right Ascen(r/s): -0.8034620388E-008 SQRT(A) (m 1/2): 5153.672852 Right Ascen at Week(rad): 0.2668763299E+000 Argument of Perigee(rad): 1.051061465 Mean Anom(rad): 0.1343558570E+001 Af0(s): 0.4453659058E-003 Af1(s/s): 0.3637978807E-011 week: 215 ******** Week 215 almanac for PRN-26 ******** ID: 26 Health: 000 Eccentricity: 0.7904052734E-002 Time of Applicability(s): 589824.0000 Orbital Inclination(rad): 0.9342566178 Rate of Right Ascen(r/s): -0.8228914196E-008 SQRT(A) (m 1/2): 5153.632324 Right Ascen at Week(rad): 0.2112215894E+000 Argument of Perigee(rad): 0.463412001 Mean Anom(rad): 0.6321472659E+000 Af0(s): 0.2403259277E-003 Af1(s/s): 0.0000000000E+000 week: 215 ******** Week 215 almanac for PRN-27 ******** ID: 27 Health: 000 Eccentricity: 0.1157569885E-001 Time of Applicability(s): 589824.0000 Orbital Inclination(rad): 0.9674229602 Rate of Right Ascen(r/s): -0.7840326581E-008 SQRT(A) (m 1/2): 5153.618652 Right Ascen at Week(rad): 0.1322683548E+001 Argument of Perigee(rad): 0.739110967 Mean Anom(rad): -0.1174007628E+001 Af0(s): 0.2861022949E-004 Af1(s/s): -0.7275957614E-011 week: 215 ******** Week 215 almanac for PRN-28 ******** ID: 28 Health: 000 Eccentricity: 0.6966590881E-003 Time of Applicability(s): 589824.0000 Orbital Inclination(rad): 0.9613948951 Rate of Right Ascen(r/s): -0.7760323249E-008 SQRT(A) (m 1/2): 5153.634277 Right Ascen at Week(rad): -0.8025603225E+000 Argument of Perigee(rad): 1.704293851 Mean Anom(rad): 0.7161136141E+000 Af0(s): 0.8106231689E-004 Af1(s/s): 0.3637978807E-011 week: 215 ******** Week 215 almanac for PRN-29 ******** ID: 29 Health: 000 Eccentricity: 0.2556324005E-002 Time of Applicability(s): 589824.0000 Orbital Inclination(rad): 0.9763272393 Rate of Right Ascen(r/s): -0.7760323249E-008 SQRT(A) (m 1/2): 5153.718750 Right Ascen at Week(rad): 0.1402500733E+001 Argument of Perigee(rad): 2.395415862 Mean Anom(rad): -0.1103408934E+001 Af0(s): -0.6008148193E-003 Af1(s/s): 0.0000000000E+000 week: 215 ******** Week 215 almanac for PRN-30 ******** ID: 30 Health: 000 Eccentricity: 0.6509304047E-002 Time of Applicability(s): 589824.0000 Orbital Inclination(rad): 0.9354011113 Rate of Right Ascen(r/s): -0.8023191341E-008 SQRT(A) (m 1/2): 5153.533691 Right Ascen at Week(rad): -0.7591103916E+000 Argument of Perigee(rad): -2.581649968 Mean Anom(rad): 0.2144016784E+001 Af0(s): -0.5149841309E-003 Af1(s/s): 0.3637978807E-011 week: 215 ******** Week 215 almanac for PRN-31 ******** ID: 31 Health: 000 Eccentricity: 0.1057863235E-001 Time of Applicability(s): 589824.0000 Orbital Inclination(rad): 0.9543661472 Rate of Right Ascen(r/s): -0.7828897534E-008 SQRT(A) (m 1/2): 5154.166504 Right Ascen at Week(rad): -0.7452232964E+000 Argument of Perigee(rad): 0.531421354 Mean Anom(rad): 0.1352513782E+001 Af0(s): -0.2174377441E-003 Af1(s/s): 0.0000000000E+000 week: 215 ******** Week 215 almanac for PRN-32 ******** ID: 32 Health: 000 Eccentricity: 0.6915092468E-002 Time of Applicability(s): 589824.0000 Orbital Inclination(rad): 0.9594055138 Rate of Right Ascen(r/s): -0.7851755629E-008 SQRT(A) (m 1/2): 5153.698242 Right Ascen at Week(rad): -0.1824148084E+001 Argument of Perigee(rad): -2.201928304 Mean Anom(rad): -0.5563552825E+000 Af0(s): -0.4863739014E-003 Af1(s/s): -0.7275957614E-011 week: 215